Location: Unspecified
(47.4992°N, 121.7766°W)
Time: 15:04:54
(UTC-07:00)

Cosmos 2058 - Visible Passes

Search period start: 19 April 2024 00:00
Search period end: 29 April 2024 00:00
Orbit: 547 x 568 km, 82.5° (Epoch: 19 April)

Date Brightness Start Highest point End Pass type
(mag) Time Alt. Az. Time Alt. Az. Time Alt. Az.
19 Apr 2.9 22:20:08 10° N 22:24:07 58° ENE 22:24:17 57° E visible
19 Apr 5.5 23:58:20 10° NW 00:00:10 13° W 00:00:10 13° W visible
20 Apr 2.7 22:18:11 10° N 22:22:12 68° E 22:22:40 61° ESE visible
20 Apr 5.6 23:56:59 10° WNW 23:58:11 11° W 23:58:33 11° W visible
21 Apr 2.7 22:16:14 10° N 22:20:17 79° E 22:21:03 56° SSE visible
22 Apr 2.7 22:14:18 10° N 22:18:20 89° W 22:19:27 47° S visible
23 Apr 2.8 22:12:20 10° NNW 22:16:22 77° W 22:17:52 37° S visible
24 Apr 3.1 22:10:24 10° NNW 22:14:24 66° W 22:16:18 29° S visible
25 Apr 3.3 22:08:27 10° NNW 22:12:25 56° W 22:14:44 23° SSW visible
26 Apr 3.6 22:06:30 10° NNW 22:10:23 48° W 22:13:11 17° SSW visible
27 Apr 3.9 22:04:33 10° NNW 22:08:21 42° W 22:11:40 13° SSW visible
28 Apr 4.2 22:02:36 10° NNW 22:06:19 36° W 22:10:00 10° SSW visible
